Regional Weather Roundup
Issued by NWS Green Bay, WI

Home | Current Version | Previous Version | Graphics & Text | Print | Product List | Glossary Off
Versions: 1 2 3 4 5 6 7 8 9 10 11 12 13 14 15 16 17 18 19 20 21 22 23 24 25 26 27 28 29 30 31 32 33 34 35 36 37 38 39 40 41 42 43 44 45 46 47 48 49 50

000
ASUS43 KGRB 181110
RWRGRB

NORTH-CENTRAL AND NORTHEAST WISCONSIN REGIONAL WEATHER ROUNDUP
NATIONAL WEATHER SERVICE GREEN BAY WI
600 AM CDT SAT APR 18 2015

WIZ005-009-010>012-018-019-181200-
NORTH CENTRAL WISCONSIN

CITY           SKY/WX    TMP DP  RH WIND       PRES   REMARKS
IRONWOOD       PTCLDY    37  32  81 E15       30.17R
MANITOWISH WTR CLEAR     37  32  82 NE8       30.16R
ARBOR VITAE    CLEAR     42  34  74 NE5       30.15R HAZE
EAGLE RIVER    CLEAR     37  31  77 NE9       30.15R
LAND O LAKES   CLEAR     37  32  83 NE6       30.18S
RHINELANDER    CLEAR     42  31  64 NE8       30.15R
PHILLIPS       CLEAR     41  32  72 NE8       30.13R
ANTIGO         CLEAR     41  33  73 NE7       30.12R
TOMAHAWK       CLEAR     43  32  64 CALM      30.14R
MERRILL        CLEAR     39  30  70 E3        30.12S
$$

WIZ013-073-181200-
NORTHEAST WISCONSIN

CITY           SKY/WX    TMP DP  RH WIND       PRES   REMARKS
IRON MOUNTAIN  CLEAR     39  32  76 N10       30.16R
MARINETTE      CLEAR     45  34  65 N14       30.13R
OCONTO         CLEAR     44  34  67 NE10      30.13R
$$

WIZ017-030-035>037-045-181200-
CENTRAL WISCONSIN

CITY           SKY/WX    TMP DP  RH WIND       PRES   REMARKS
MEDFORD        CLEAR     44  31  59 NE9       30.11R
WAUSAU         CLEAR     47  29  49 N5        30.10R
MOSINEE        PTCLDY    46  30  53 NE8       30.12R
MARSHFIELD     CLEAR     48  30  49 NE13      30.11R
WISC RAPIDS    CLEAR     51  28  41 NE10      30.10R
STEVENS POINT  CLEAR     45  30  56 NE7       30.11R
WAUPACA        CLEAR     51  32  48 NE5       30.12R
SHAWANO        CLEAR     50  34  55 NE12      30.12R
CLINTONVILLE   CLEAR     46  32  57 NE9       30.10R
$$

WIZ038-039-048-051-181200-
FOX VALLEY

CITY           SKY/WX    TMP DP  RH WIND       PRES   REMARKS
NWS GREEN BAY  CLEAR     48  37  65 NE16      30.12R
APPLETON       PTCLDY    48  34  57 NE13      30.10R
OSHKOSH        PTCLDY    50  38  63 NE17G26   30.10R
FOND DU LAC    PTCLDY    46  41  82 NE8       30.08R
$$

WIZ022-050-052-181200-
EAST CENTRAL WISCONSIN

CITY           SKY/WX    TMP DP  RH WIND       PRES   REMARKS
STURGEON BAY   CLEAR     43  34  70 N17       30.16R
MANITOWOC      CLEAR     47  36  65 NE8       30.12R
SHEBOYGAN      CLEAR     49  37  63 NE20G29   30.09R
$$

LMZ563-521-522-541>543-181200-
LAKESHORE

STATION/POSITION TIME  TEMP    WIND        PRES    VSBY  WAVE
                       AIR SEA DIR/SP/G                  HT/PER
                 (UTC) (F)     (DEG/KT/KT) (MB)    (MI)  (FT/S)
SHEBOYGAN LKSHOR 1100   46      10/ 23/ 25 1019.9R
KEWAUNEE LKSHORE 1100   45      10/  8/ 12 1018.7S
NORTHPORT PIER   1100   39     340/ 15/ 17 1020.3R
SISTER BAY LKSHO 1000   42      10/ 22/ 31   N/A
CHAMBERS ISLAND  1100   40     360/ 14/ 16 1020.3S
MENOMINEE LKSHOR 1100   45     350/ 17/ 19 1020.6R
$$



USA.gov is the U.S. government's official web portal to all federal, state and local government web resources and services.